Theta_e
280 280 281 282 283 283 283 282 283 284 284 284 285 287 289 295 304 312 311 309 307 306 306 303 303 303 301 300 300 301 299 299 297 291 295 295 297 296 294 297 295 295 294
279 279 279 279 280 281 281 281 282 282 283 284 284 284 285 287 288 297 303 304 304 302 302 301 301 300 300 299 299 298 299 299 297 292 291 290 293 295 294 294 294 294 294
278 278 278 278 277 277 279 280 280 281 281 282 283 282 283 284 285 287 294 300 301 301 301 300 300 299 297 297 297 297 296 296 295 293 290 292 291 293 293 293 293 292 293
277 277 277 276 276 277 278 278 278 279 279 280 281 282 282 283 285 285 287 295 298 298 298 298 298 297 296 295 296 295 295 292 291 292 289 288 290 290 291 289 289 290 289
276 276 276 276 276 276 276 277 277 277 277 278 279 280 281 282 284 284 285 290 294 296 296 297 297 294 293 295 295 294 292 291 291 291 288 288 286 286 287 289 288 287 286
276 275 275 275 275 275 275 275 275 275 275 276 277 277 278 281 284 286 285 284 287 291 291 292 295 289 290 293 294 295 295 292 290 290 289 287 287 287 288 288 287 285 284
275 275 274 274 273 273 273 274 273 273 274 274 275 275 276 278 282 285 285 283 283 285 287 288 287 290 289 291 292 292 292 294 294 292 290 289 287 288 288 287 286 286 287
274 274 273 272 271 271 272 271 272 272 272 272 273 274 275 277 279 283 284 283 282 282 284 284 285 286 287 286 287 287 287 288 290 291 292 290 290 289 289 288 287 283 281
273 272 271 270 269 269 269 270 271 270 270 271 272 273 273 275 278 280 282 281 281 281 282 283 283 284 287 289 286 285 286 287 290 292 292 294 293 292 289 287 285 285 283
272 270 269 269 268 268 268 269 270 269 269 270 270 272 273 274 276 278 280 279 278 279 281 282 283 283 285 288 286 286 285 287 286 286 287 289 290 290 290 288 287 286 284
269 268 268 268 267 268 268 269 268 267 267 267 269 271 273 273 273 277 278 277 277 277 278 279 281 283 285 287 289 286 286 287 287 286 286 286 286 286 286 286 286 287 286
268 267 266 265 266 267 266 266 267 266 266 266 267 269 271 272 273 274 276 277 278 276 276 278 279 283 284 286 287 289 290 289 286 286 286 285 284 284 284 283 281 280 280
265 263 263 264 264 265 265 265 265 266 265 266 266 267 268 270 271 273 274 276 276 275 276 277 279 280 283 285 287 288 286 286 286 285 285 285 286 285 279 278 277 277 276
262 263 263 263 264 264 265 265 265 265 265 265 265 266 266 267 269 270 272 272 274 275 276 276 277 278 282 284 282 286 285 286 286 286 286 286 281 280 279 278 277 278 277
262 262 263 264 264 264 264 264 264 265 265 265 265 266 265 265 267 271 272 272 272 274 274 273 273 274 276 278 279 280 284 284 285 285 285 282 281 281 279 280 279 279 279
261 263 264 262 263 263 263 263 266 267 268 269 269 268 268 269 270 271 272 273 273 274 271 269 270 272 272 274 275 276 278 279 284 284 284 284 282 281 279 279 279 280 279
259 261 261 261 262 261 262 261 260 263 266 267 267 268 268 268 270 270 271 272 272 270 265 267 268 269 270 270 271 272 273 275 278 284 284 284 282 282 279 278 278 279 279
256 257 258 260 261 261 261 260 260 259 259 260 264 265 267 268 268 269 269 269 264 264 264 264 264 266 266 267 268 268 269 271 273 274 283 284 283 282 280 279 279 279 280
257 259 260 260 260 259 258 258 259 259 259 259 260 263 264 265 265 266 267 262 261 261 262 262 263 264 264 265 265 266 267 268 270 272 276 283 282 282 280 280 280 280 280
256 255 255 257 258 259 259 259 259 259 259 259 259 260 261 260 260 262 263 263 262 261 261 261 262 262 262 263 263 264 265 266 268 270 272 274 282 282 280 280 280 279 279
259 259 257 257 257 258 258 258 258 258 258 258 259 260 264 263 261 261 261 260 260 260 260 260 261 261 261 261 261 262 263 265 266 267 271 271 271 280 281 281 281 280 280
258 258 258 258 258 258 258 259 258 258 258 258 258 260 264 259 259 259 259 259 260 260 260 259 259 260 260 260 260 260 261 262 264 267 266 267 268 269 280 280 280 280 279
258 258 258 258 258 258 257 257 258 258 258 259 259 259 259 259 259 259 259 259 259 259 259 258 258 258 259 259 260 260 260 261 263 264 263 264 265 267 269 276 279 279 278
259 258 257 257 257 257 257 257 258 258 258 257 258 258 258 259 259 259 259 259 258 258 258 258 257 256 256 257 259 260 260 261 262 262 262 263 263 264 266 268 277 279 278
257 256 256 256 256 256 256 257 257 258 258 258 258 258 259 259 259 259 259 259 258 257 256 256 256 256 255 255 256 257 259 260 259 260 260 260 261 263 264 266 269 276 278
257 256 256 256 256 256 256 256 257 257 257 258 258 258 259 259 259 259 259 258 257 256 255 256 255 255 254 255 255 257 258 260 258 259 259 259 259 261 264 266 269 269 277
Wind_Speed
14 15 15 15 15 15 14 16 17 19 19 20 21 20 21 22 20 13 14 12 14 12 10 12 13 12 9 9 8 8 8 8 9 2 3 2 5 5 6 6 6 7 6
12 13 15 15 16 15 15 17 18 19 19 19 20 20 20 21 23 18 7 10 13 12 12 11 12 8 12 10 9 11 10 11 6 5 4 3 4 6 6 8 6 6 6
12 13 13 15 15 16 16 16 17 17 19 19 19 19 19 19 21 21 17 5 7 8 10 10 11 12 11 9 9 10 9 7 5 3 4 2 2 3 5 5 5 4 3
10 12 13 14 15 14 15 15 15 16 16 18 18 18 17 17 19 22 18 11 2 5 6 6 7 10 11 11 11 11 9 7 4 3 3 3 3 2 3 4 3 2 3
9 10 12 13 13 14 15 15 14 15 15 15 17 19 18 15 16 22 20 15 7 4 5 7 6 8 8 9 7 9 9 8 7 5 3 3 3 4 8 5 4 3 1
8 10 11 12 13 14 15 15 15 15 14 16 15 15 19 13 33 33 25 15 13 7 1 3 2 6 6 11 13 12 12 11 10 8 4 4 5 4 6 7 5 4 5
7 8 9 11 13 14 15 15 15 15 15 15 16 15 15 15 31 32 29 15 12 12 9 4 3 2 2 5 9 9 10 13 14 11 10 8 6 7 8 7 6 3 3
6 7 9 10 12 13 14 14 14 13 12 11 12 15 14 11 26 30 29 14 12 14 11 11 6 4 2 1 2 4 6 7 7 5 9 7 5 9 10 6 8 6 4
6 7 7 9 12 12 13 12 12 13 12 11 10 12 14 13 24 28 23 13 13 12 11 12 11 12 18 9 2 5 6 6 5 8 5 9 11 14 11 8 7 7 3
5 5 7 8 10 12 12 12 11 11 12 11 12 9 10 11 21 24 22 11 13 10 10 10 17 16 21 18 1 4 5 6 5 3 3 5 9 12 19 6 8 9 3
1 3 6 8 10 12 12 10 11 11 12 12 12 10 9 6 11 21 22 11 11 11 10 10 9 24 22 19 13 4 5 4 7 4 4 4 4 7 5 4 3 4 3
1 4 6 8 8 9 11 11 10 10 11 11 12 11 8 9 14 13 19 20 19 10 10 10 12 25 22 19 11 9 11 7 4 5 6 6 6 6 6 5 6 6 5
2 5 6 8 9 9 10 10 9 8 8 9 9 10 10 10 9 19 21 22 19 12 9 17 25 25 21 12 14 11 8 3 5 6 7 6 6 6 9 8 8 9 9
4 6 7 7 8 8 7 7 7 7 7 8 8 9 10 10 10 10 11 11 16 13 17 12 19 19 16 11 8 6 3 5 6 6 5 5 6 6 5 4 5 5 3
5 6 8 7 7 8 7 7 8 8 9 8 8 9 10 10 10 19 17 12 11 14 16 10 9 9 9 8 8 7 6 1 4 3 4 6 6 7 6 5 6 6 3
7 6 5 6 6 7 7 8 11 14 15 16 18 14 9 18 22 23 23 22 22 22 9 8 7 7 7 8 8 8 7 9 2 2 4 6 7 8 8 6 6 6 7
7 7 5 5 6 6 7 7 8 9 15 14 13 15 17 18 20 21 22 22 20 15 6 6 7 7 7 7 8 8 8 8 12 2 3 5 5 6 9 8 8 7 6
6 7 6 5 5 6 6 7 7 8 9 8 10 13 16 17 18 20 21 16 7 6 5 6 6 7 7 7 7 7 8 8 8 9 4 4 5 7 7 8 8 9 8
6 6 5 5 5 6 6 7 7 7 8 8 8 10 8 15 18 15 14 5 5 5 5 5 5 6 6 7 6 6 8 7 8 8 9 3 4 6 7 7 8 12 10
6 8 6 5 5 6 6 6 7 7 7 7 7 7 7 7 7 7 6 5 5 5 5 5 5 5 5 6 6 6 6 7 6 6 8 9 3 4 6 7 8 10 10
4 5 5 5 6 6 6 6 6 7 7 7 8 7 15 9 8 7 7 6 6 6 6 5 5 5 5 5 5 5 6 6 6 6 6 8 9 3 5 6 7 7 8
5 5 5 5 5 6 6 6 7 7 8 8 8 9 16 5 6 7 7 6 6 6 5 5 5 5 5 5 5 5 5 6 6 6 5 6 7 8 3 5 6 6 7
6 6 5 5 6 7 6 7 7 8 9 9 8 8 7 6 6 7 7 7 6 6 5 5 6 6 5 5 5 5 5 5 5 5 5 6 6 7 6 5 5 6 8
6 6 6 5 5 6 7 7 7 9 9 9 9 8 8 7 8 8 8 7 6 6 6 6 6 7 6 5 5 6 6 5 4 4 6 5 5 7 6 6 5 7 7
6 6 5 6 6 6 7 8 8 8 9 9 9 8 8 8 9 8 8 7 6 6 7 6 6 8 8 9 9 9 9 10 7 6 4 5 6 7 7 6 5 6 6
6 6 6 5 6 7 7 8 8 8 9 9 9 9 9 9 9 9 8 7 7 7 7 6 8 10 10 8 9 10 11 11 9 9 5 5 5 5 4 7 8 5 5
Wind_Direction
342 340 341 344 347 348 346 343 343 336 343 341 337 338 349 343 314 218 207 194 195 196 191 187 192 171 177 177 176 181 175 177 220 273 106 143 180 171 153 190 157 152 169
336 334 336 339 342 343 347 344 344 345 344 347 341 347 357 351 352 335 286 190 188 187 186 184 188 174 178 171 183 191 191 197 225 175 138 140 169 197 166 182 167 167 166
332 332 334 339 340 340 339 343 342 348 344 348 346 350 353 348 353 345 330 278 179 177 184 181 184 176 176 179 172 194 184 196 224 126 125 112 110 158 166 173 169 147 168
327 328 331 336 336 335 336 341 340 343 345 346 344 343 349 348 358 349 332 307 328 156 162 171 174 183 182 178 185 192 184 186 160 106 113 133 143 145 140 157 166 139 177
318 322 326 329 331 332 336 338 342 341 339 340 344 342 344 353 356 352 348 333 329 257 159 167 170 181 180 187 183 187 161 176 169 173 153 121 139 150 185 178 160 128 256
309 316 323 328 331 333 335 335 339 340 341 339 341 345 342 346 350 359 359 343 344 321 350 116 134 154 176 194 199 186 186 184 194 191 181 168 179 153 162 171 138 158 208
297 309 319 326 327 331 330 332 335 336 338 337 334 338 342 341 349 354 357 355 346 3 339 46 65 41 168 186 207 199 203 200 205 186 196 193 168 173 159 165 170 170 183
287 305 319 326 324 325 327 328 329 330 331 329 330 329 330 340 347 350 358 347 358 9 345 23 30 51 46 191 143 195 217 214 226 216 203 183 182 172 173 183 165 113 70
281 302 319 323 321 322 323 323 323 327 325 323 328 325 326 332 347 349 357 342 358 352 0 14 23 26 8 346 178 224 234 236 225 205 191 177 159 168 153 122 143 163 147
272 306 316 316 314 314 312 314 319 319 313 321 317 320 318 330 342 346 354 349 347 346 349 7 8 5 0 357 274 206 227 232 193 156 156 163 159 170 169 170 162 182 134
125 294 303 309 311 306 309 315 314 313 314 315 316 320 316 347 338 344 350 349 346 342 343 353 347 350 351 350 339 215 217 174 201 185 157 140 155 151 137 93 139 147 167
280 293 301 306 303 305 308 308 312 311 314 317 320 321 327 338 340 340 349 346 344 340 339 344 331 337 340 342 336 302 249 224 166 176 180 176 167 157 135 105 88 77 72
309 300 293 298 299 299 305 305 308 311 311 316 321 319 328 335 335 342 342 343 340 339 332 331 334 333 330 334 337 320 296 191 185 190 194 188 184 153 128 111 87 82 70
294 295 298 294 302 297 300 301 304 307 311 316 315 321 323 326 330 335 332 333 332 337 336 334 330 328 326 337 353 340 274 202 197 203 197 159 122 147 146 141 120 132 104
286 283 288 291 298 302 295 299 296 295 295 302 308 310 315 317 317 321 324 324 326 321 324 327 331 331 336 342 347 357 339 228 200 178 170 155 156 155 156 165 133 134 134
281 283 295 304 297 301 301 302 297 295 299 299 300 302 306 307 314 314 321 322 320 320 322 324 323 329 335 338 344 347 356 354 308 183 166 172 169 171 159 160 149 157 151
266 283 283 279 288 294 301 304 307 310 309 308 306 304 308 304 311 319 318 320 326 342 316 322 327 326 332 343 338 346 342 341 329 250 191 176 166 170 160 164 161 164 151
259 264 271 270 277 286 292 298 302 303 310 310 312 311 306 312 316 317 316 330 336 339 325 324 327 330 327 328 337 337 332 336 344 340 280 184 171 168 172 176 173 167 159
245 251 251 268 278 286 294 289 287 290 290 295 305 311 313 318 319 317 325 330 318 315 313 307 315 315 318 320 322 327 324 326 325 329 327 209 179 172 181 181 178 173 160
241 246 262 276 282 282 280 282 285 284 288 293 300 298 313 310 304 308 311 311 303 297 297 297 301 300 304 310 315 322 317 319 330 331 334 338 217 181 182 180 184 179 177
253 257 238 266 270 269 274 277 281 284 284 286 285 286 289 295 306 301 304 302 293 289 291 290 292 292 296 301 306 306 314 317 321 323 328 345 339 236 185 182 184 184 183
245 254 256 262 268 270 272 273 277 279 278 279 282 284 297 298 280 282 285 285 285 283 280 280 278 277 284 289 294 300 303 304 314 320 348 339 338 338 269 183 176 173 173
238 244 252 259 265 270 268 261 263 267 271 273 279 282 280 276 272 270 272 272 268 266 271 272 272 270 262 265 267 271 281 289 307 330 336 330 329 334 338 311 182 178 174
265 260 256 261 264 265 267 271 269 268 269 272 272 271 273 274 273 272 270 268 265 263 260 259 257 255 263 260 262 262 263 270 283 306 310 312 317 322 326 325 311 185 179
246 249 247 251 257 261 268 264 265 267 268 268 270 271 272 271 271 269 268 267 265 259 256 256 261 264 255 248 247 255 266 281 290 288 290 284 280 293 296 301 306 302 176
245 243 246 246 250 253 255 261 262 264 265 265 266 266 268 269 268 267 266 261 260 261 259 254 253 255 259 257 253 252 251 254 252 248 243 251 261 265 271 279 288 313 212